• In Netherlands
  • List of Countries
  • For 7 days
  • Water Temperature
  • Satellite Maps
  • Weather Map
  • Weather Widgets
  • user-avatar
    Login

    Hourly Weather Benguela

    Today, 24 May, Wednesday

    Time Temperature Precipitation Wind Pressure Humidity
    00:00 +27°C° 0 mm 2 mps 759 mmHg 61%
    01:00 +27°C° 0 mm 1 mps 759 mmHg 62%
    02:00 +27°C° 0 mm 2 mps 759 mmHg 61%
    03:00 +26°C° 0 mm 2 mps 758 mmHg 61%
    04:00 +26°C° 0 mm 2 mps 758 mmHg 60%
    05:00 +27°C° 0 mm 2 mps 759 mmHg 57%
    06:00 +27°C° 0 mm 2 mps 759 mmHg 55%
    07:00 +29°C° 0 mm 2 mps 759 mmHg 49%
    08:00 +31°C° 0 mm 2 mps 759 mmHg 42%
    09:00 +35°C° 0 mm 2 mps 759 mmHg 35%
    10:00 +37°C° 0 mm 2 mps 759 mmHg 27%
    11:00 +38°C° 0 mm 3 mps 759 mmHg 26%
    12:00 +40°C° 0 mm 4 mps 758 mmHg 25%
    13:00 +41°C° 0 mm 4 mps 758 mmHg 24%
    14:00 +40°C° 0 mm 5 mps 757 mmHg 27%
    15:00 +39°C° 0 mm 5 mps 757 mmHg 30%
    16:00 +37°C° 0 mm 5 mps 756 mmHg 33%
    17:00 +35°C° 0 mm 4 mps 757 mmHg 41%
    18:00 +32°C° 0 mm 4 mps 757 mmHg 49%
    19:00 +28°C° 0 mm 3 mps 758 mmHg 58%
    20:00 +28°C° 0 mm 3 mps 758 mmHg 59%
    21:00 +27°C° 0 mm 2 mps 758 mmHg 59%
    22:00 +27°C° 0 mm 2 mps 759 mmHg 60%
    23:00 +27°C° 0 mm 2 mps 759 mmHg 58%

    Tomorrow, 25 May, Thursday

    Time Temperature Precipitation Wind Pressure Humidity
    00:00 +26°C° 0 mm 2 mps 759 mmHg 57%
    01:00 +26°C° 0 mm 2 mps 759 mmHg 55%
    02:00 +26°C° 0 mm 2 mps 759 mmHg 53%
    03:00 +26°C° 0 mm 2 mps 758 mmHg 52%
    04:00 +26°C° 0 mm 2 mps 758 mmHg 50%
    05:00 +27°C° 0 mm 2 mps 758 mmHg 48%
    06:00 +27°C° 0 mm 2 mps 759 mmHg 45%
    07:00 +27°C° 0 mm 2 mps 759 mmHg 43%
    08:00 +30°C° 0 mm 2 mps 759 mmHg 36%
    09:00 +34°C° 0 mm 2 mps 759 mmHg 29%
    10:00 +37°C° 0 mm 2 mps 759 mmHg 22%
    11:00 +38°C° 0 mm 3 mps 758 mmHg 22%
    12:00 +40°C° 0 mm 4 mps 758 mmHg 21%
    13:00 +41°C° 0 mm 5 mps 757 mmHg 21%
    14:00 +40°C° 0 mm 5 mps 757 mmHg 23%
    15:00 +39°C° 0 mm 5 mps 756 mmHg 26%
    16:00 +37°C° 0 mm 5 mps 756 mmHg 29%
    17:00 +35°C° 0 mm 4 mps 756 mmHg 35%
    18:00 +32°C° 0 mm 4 mps 757 mmHg 42%
    19:00 +29°C° 0 mm 3 mps 757 mmHg 49%
    20:00 +28°C° 0 mm 3 mps 758 mmHg 52%
    21:00 +28°C° 0 mm 2 mps 758 mmHg 54%
    22:00 +27°C° 0 mm 2 mps 759 mmHg 56%
    23:00 +27°C° 0 mm 2 mps 759 mmHg 57%

    Day after tomorrow, 26 May, Friday

    Time Temperature Precipitation Wind Pressure Humidity
    00:00 +26°C° 0 mm 2 mps 758 mmHg 57%
    01:00 +26°C° 0 mm 2 mps 758 mmHg 58%
    02:00 +26°C° 0 mm 2 mps 758 mmHg 56%
    03:00 +26°C° 0 mm 2 mps 758 mmHg 55%
    04:00 +26°C° 0 mm 2 mps 758 mmHg 53%
    05:00 +27°C° 0 mm 2 mps 758 mmHg 49%
    06:00 +28°C° 0 mm 2 mps 758 mmHg 45%
    07:00 +29°C° 0 mm 2 mps 759 mmHg 41%
    08:00 +31°C° 0 mm 2 mps 759 mmHg 36%
    09:00 +34°C° 0 mm 2 mps 759 mmHg 30%
    10:00 +37°C° 0 mm 2 mps 759 mmHg 25%
    11:00 +38°C° 0 mm 3 mps 759 mmHg 25%
    12:00 +38°C° 0 mm 4 mps 758 mmHg 26%
    13:00 +40°C° 0 mm 5 mps 757 mmHg 27%
    14:00 +39°C° 0 mm 5 mps 757 mmHg 31%
    15:00 +37°C° 0 mm 5 mps 757 mmHg 34%
    16:00 +36°C° 0 mm 5 mps 756 mmHg 38%
    17:00 +34°C° 0 mm 4 mps 757 mmHg 47%
    18:00 +30°C° 0 mm 4 mps 758 mmHg 56%
    19:00 +28°C° 0 mm 3 mps 758 mmHg 64%
    20:00 +27°C° 0 mm 3 mps 759 mmHg 69%
    21:00 +27°C° 0 mm 2 mps 760 mmHg 73%
    22:00 +26°C° 0 mm 2 mps 760 mmHg 77%
    23:00 +26°C° 0 mm 2 mps 760 mmHg 78%

    27 May, Saturday

    Time Temperature Precipitation Wind Pressure Humidity
    00:00 +26°C° 0 mm 1 mps 760 mmHg 79%
    01:00 +26°C° 0 mm 1 mps 760 mmHg 80%
    02:00 +26°C° 0 mm 1 mps 760 mmHg 78%
    03:00 +26°C° 0 mm 2 mps 759 mmHg 76%
    04:00 +26°C° 0 mm 2 mps 759 mmHg 74%
    05:00 +27°C° 0 mm 2 mps 760 mmHg 70%
    06:00 +27°C° 0 mm 1 mps 760 mmHg 67%
    07:00 +28°C° 0 mm 1 mps 760 mmHg 64%
    08:00 +30°C° 0 mm 1 mps 761 mmHg 54%
    09:00 +32°C° 0 mm 1 mps 761 mmHg 44%
    10:00 +35°C° 0 mm 1 mps 761 mmHg 34%
    11:00 +37°C° 0 mm 2 mps 760 mmHg 33%
    12:00 +38°C° 0 mm 3 mps 760 mmHg 32%
    13:00 +40°C° 0 mm 4 mps 759 mmHg 31%
    14:00 +38°C° 0 mm 4 mps 758 mmHg 35%
    15:00 +37°C° 0 mm 4 mps 758 mmHg 40%
    16:00 +36°C° 0 mm 4 mps 758 mmHg 44%
    17:00 +33°C° 0 mm 4 mps 758 mmHg 55%
    18:00 +30°C° 0 mm 3 mps 759 mmHg 66%
    19:00 +28°C° 0 mm 2 mps 759 mmHg 77%
    20:00 +28°C° 0 mm 2 mps 760 mmHg 79%
    21:00 +28°C° 0 mm 1 mps 760 mmHg 80%
    22:00 +27°C° 0 mm 1 mps 761 mmHg 81%
    23:00 +27°C° 0 mm 1 mps 761 mmHg 84%

    28 May, Sunday

    Time Temperature Precipitation Wind Pressure Humidity
    00:00 +26°C° 0 mm 1 mps 760 mmHg 86%
    01:00 +25°C° 0 mm 1 mps 760 mmHg 89%
    02:00 +25°C° 0 mm 1 mps 760 mmHg 88%
    03:00 +25°C° 0 mm 1 mps 760 mmHg 87%
    04:00 +25°C° 0 mm 1 mps 759 mmHg 87%
    05:00 +26°C° 0 mm 1 mps 760 mmHg 82%
    06:00 +26°C° 0 mm 1 mps 760 mmHg 78%
    07:00 +27°C° 0 mm 1 mps 761 mmHg 74%
    08:00 +29°C° 0 mm 1 mps 761 mmHg 64%
    09:00 +32°C° 0 mm 1 mps 761 mmHg 55%
    10:00 +35°C° 0 mm 2 mps 761 mmHg 45%
    11:00 +36°C° 0 mm 2 mps 760 mmHg 43%
    12:00 +37°C° 0 mm 3 mps 759 mmHg 41%
    13:00 +38°C° 0 mm 4 mps 759 mmHg 39%
    14:00 +37°C° 0 mm 4 mps 758 mmHg 43%
    15:00 +37°C° 0 mm 4 mps 758 mmHg 47%
    16:00 +36°C° 0 mm 4 mps 758 mmHg 51%
    17:00 +34°C° 0 mm 3 mps 759 mmHg 61%
    18:00 +30°C° 0 mm 3 mps 759 mmHg 70%
    19:00 +28°C° 0 mm 2 mps 760 mmHg 79%
    20:00 +28°C° 0 mm 2 mps 760 mmHg 81%
    21:00 +28°C° 0 mm 1 mps 760 mmHg 82%
    22:00 +28°C° 0 mm 1 mps 761 mmHg 83%
    23:00 +27°C° 0 mm 1 mps 760 mmHg 81%

    29 May, Monday

    Time Temperature Precipitation Wind Pressure Humidity
    00:00 +27°C° 0 mm 1 mps 760 mmHg 80%
    01:00 +27°C° 0 mm 1 mps 760 mmHg 79%
    02:00 +27°C° 0 mm 1 mps 760 mmHg 74%
    03:00 +27°C° 0 mm 1 mps 759 mmHg 70%
    04:00 +27°C° 0 mm 1 mps 759 mmHg 66%
    05:00 +28°C° 0 mm 1 mps 759 mmHg 63%
    06:00 +28°C° 0 mm 1 mps 760 mmHg 60%
    07:00 +29°C° 0 mm 1 mps 760 mmHg 57%
    08:00 +31°C° 0 mm 1 mps 760 mmHg 52%
    09:00 +34°C° 0 mm 2 mps 760 mmHg 47%
    10:00 +36°C° 0 mm 2 mps 760 mmHg 43%
    11:00 +36°C° 0 mm 3 mps 760 mmHg 42%
    12:00 +37°C° 0 mm 3 mps 759 mmHg 41%
    13:00 +37°C° 0 mm 3 mps 758 mmHg 41%
    14:00 +37°C° 0 mm 3 mps 758 mmHg 39%
    15:00 +37°C° 0 mm 3 mps 758 mmHg 38%
    16:00 +37°C° 0 mm 4 mps 758 mmHg 36%
    17:00 +35°C° 0 mm 3 mps 758 mmHg 43%
    18:00 +32°C° 0 mm 2 mps 759 mmHg 49%
    19:00 +30°C° 0 mm 2 mps 759 mmHg 55%
    20:00 +30°C° 0 mm 2 mps 759 mmHg 56%
    21:00 +29°C° 0 mm 2 mps 760 mmHg 57%
    22:00 +29°C° 0 mm 1 mps 760 mmHg 58%
    23:00 +29°C° 0 mm 1 mps 760 mmHg 59%
    Show more